,,,PA_Meas_PMT16A,,PR_Meas_QMR101_102,,RH_Meas_QMH101,,SR_Meas_QMS101,,TA_Meas_QMH101,,GenWind,,GenWind,
date,time,status,PA,status,PR,status,RH,status,SR,status,TA,status,DirAvg,status,SpdAvg,
2009-12-15, 00:00:04,VALID,1001.21,VALID,0,VALID,91.6546,VALID,0,VALID,23.7597,VALID,91,VALID,0.628906,
2009-12-15, 00:01:04,VALID,1001.19,VALID,0,VALID,91.5478,VALID,0,VALID,23.7189,VALID,91,VALID,0.406641,
2009-12-15, 00:02:04,VALID,1001.17,VALID,0,VALID,91.09,VALID,0,VALID,23.6622,VALID,91,VALID,0.175391,
2009-12-15, 00:03:04,VALID,1001.18,VALID,0,VALID,91.0977,VALID,0,VALID,23.6036,VALID,91,VALID,0,
2009-12-15, 00:04:04,VALID,1001.18,VALID,0,VALID,91.2731,VALID,0,VALID,23.5646,VALID,91,VALID,0,
2009-12-15, 00:05:04,VALID,1001.2,VALID,0,VALID,91.4868,VALID,0,VALID,23.5451,VALID,91,VALID,0,
2009-12-15, 00:06:04,VALID,1001.17,VALID,0,VALID,91.4868,VALID,0,VALID,23.4866,VALID,91,VALID,0,
2009-12-15, 00:07:04,VALID,1001.16,VALID,0,VALID,91.4639,VALID,0,VALID,23.4263,VALID,91,VALID,0,
2009-12-15, 00:08:04,VALID,1001.12,VALID,0,VALID,91.7309,VALID,0,VALID,23.428,VALID,91,VALID,0,
2009-12-15, 00:09:04,VALID,1001.13,VALID,0,VALID,91.9751,VALID,0,VALID,23.4475,VALID,91,VALID,0,
2009-12-15, 00:10:04,VALID,1001.09,VALID,0,VALID,92.1734,VALID,0,VALID,23.4671,VALID,91,VALID,0,
2009-12-15, 00:11:04,VALID,1001.11,VALID,0,VALID,92.2726,VALID,0,VALID,23.4671,VALID,91,VALID,0,
2009-12-15, 00:12:04,VALID,1001.13,VALID,0,VALID,92.2421,VALID,0,VALID,23.4493,VALID,91,VALID,0,
2009-12-15, 00:13:04,VALID,1001.07,VALID,0,VALID,92.4786,VALID,0,VALID,23.4298,VALID,91,VALID,0,
2009-12-15, 00:14:04,VALID,1001.1,VALID,0,VALID,92.616,VALID,0,VALID,23.4688,VALID,91,VALID,0,
2009-12-15, 00:15:04,VALID,1001.09,VALID,0,VALID,92.6694,VALID,0,VALID,23.4688,VALID,91,VALID,0,
2009-12-15, 00:16:04,VALID,1001.07,VALID,0,VALID,92.6617,VALID,0,VALID,23.4688,VALID,91,VALID,0,
2009-12-15, 00:17:04,VALID,1001.03,VALID,0,VALID,92.6465,VALID,0,VALID,23.428,VALID,49,VALID,0.559766,
2009-12-15, 00:18:04,VALID,1001.03,VALID,0,VALID,92.7151,VALID,0,VALID,23.4298,VALID,36,VALID,1.14414,
2009-12-15, 00:19:04,VALID,1001.01,VALID,0,VALID,92.532,VALID,0,VALID,23.3305,VALID,33,VALID,1.13555,
2009-12-15, 00:20:04,VALID,1000.99,VALID,0,VALID,92.4786,VALID,0,VALID,23.3127,VALID,33,VALID,0.821484,
2009-12-15, 00:21:04,VALID,1000.94,VALID,0,VALID,92.2879,VALID,0,VALID,23.2152,VALID,33,VALID,0.750781,
2009-12-15, 00:22:04,VALID,1000.92,VALID,0,VALID,92.471,VALID,0,VALID,23.1566,VALID,33,VALID,0.832031,
2009-12-15, 00:23:04,VALID,1000.94,VALID,0,VALID,92.5091,VALID,0,VALID,23.1176,VALID,33,VALID,0.784375,
2009-12-15, 00:24:04,VALID,1000.92,VALID,0,VALID,92.5168,VALID,0,VALID,23.0786,VALID,33,VALID,0.655469,
2009-12-15, 00:25:04,VALID,1000.91,VALID,0,VALID,92.7533,VALID,0,VALID,23.0591,VALID,33,VALID,0.599609,
2009-12-15, 00:26:04,VALID,1000.9,VALID,0,VALID,92.8525,VALID,0,VALID,23.0769,VALID,26,VALID,0.471875,
2009-12-15, 00:27:04,VALID,1000.9,VALID,0,VALID,92.8067,VALID,0,VALID,23.0573,VALID,26,VALID,0.410937,
2009-12-15, 00:28:04,VALID,1000.86,VALID,0,VALID,92.8372,VALID,0,VALID,23.0183,VALID,26,VALID,0.362891,
2009-12-15, 00:29:04,VALID,1000.82,VALID,0,VALID,92.8448,VALID,0,VALID,22.9776,VALID,26,VALID,0.383984,
2009-12-15, 00:30:04,VALID,1000.82,VALID,0,VALID,92.8067,VALID,0,VALID,22.919,VALID,26,VALID,0.0304688,
2009-12-15, 00:31:04,VALID,1000.76,VALID,0,VALID,92.9517,VALID,0,VALID,22.9403,VALID,25,VALID,0.341406,
2009-12-15, 00:32:04,VALID,1000.76,VALID,0,VALID,93.0814,VALID,0,VALID,22.9581,VALID,25,VALID,0.0253906,
2009-12-15, 00:33:04,VALID,1000.78,VALID,0,VALID,93.1882,VALID,0,VALID,22.9988,VALID,25,VALID,0.195313,
2009-12-15, 00:34:04,VALID,1000.77,VALID,0,VALID,93.2187,VALID,0.112286,VALID,23.0378,VALID,25,VALID,0.475,
2009-12-15, 00:35:04,VALID,1000.77,VALID,0,VALID,93.2645,VALID,0,VALID,23.0166,VALID,25,VALID,0.232422,
2009-12-15, 00:36:04,VALID,1000.78,VALID,0,VALID,93.3408,VALID,0,VALID,23.0769,VALID,25,VALID,0.246094,
2009-12-15, 00:37:04,VALID,1000.78,VALID,0,VALID,93.2568,VALID,0,VALID,23.0573,VALID,25,VALID,0.213281,
2009-12-15, 00:38:04,VALID,1000.77,VALID,0,VALID,93.1882,VALID,0,VALID,22.9988,VALID,25,VALID,0.259375,
2009-12-15, 00:39:04,VALID,1000.74,VALID,0,VALID,93.1577,VALID,0,VALID,22.9403,VALID,25,VALID,0.0359375,
2009-12-15, 00:40:04,VALID,1000.71,VALID,0,VALID,93.2721,VALID,0,VALID,22.9385,VALID,25,VALID,0,
2009-12-15, 00:41:04,VALID,1000.7,VALID,0,VALID,93.3408,VALID,0.112286,VALID,22.9988,VALID,25,VALID,0,
2009-12-15, 00:42:04,VALID,1000.66,VALID,0,VALID,93.4171,VALID,0,VALID,23.0378,VALID,25,VALID,0.148047,
2009-12-15, 00:43:04,VALID,1000.66,VALID,0,VALID,93.4934,VALID,0,VALID,23.0946,VALID,25,VALID,0.282813,
2009-12-15, 00:44:04,VALID,1000.69,VALID,0,VALID,93.5468,VALID,0,VALID,23.1744,VALID,25,VALID,0,
2009-12-15, 00:45:04,VALID,1000.69,VALID,0,VALID,93.5163,VALID,0,VALID,23.1939,VALID,25,VALID,0,
2009-12-15, 00:46:04,VALID,1000.66,VALID,0,VALID,93.5163,VALID,0,VALID,23.1939,VALID,25,VALID,0,
2009-12-15, 00:47:04,VALID,1000.67,VALID,0,VALID,93.5163,VALID,0,VALID,23.1921,VALID,25,VALID,0,
2009-12-15, 00:48:04,VALID,1000.68,VALID,0,VALID,93.4247,VALID,0,VALID,23.1744,VALID,119,VALID,0,
2009-12-15, 00:49:04,VALID,1000.66,VALID,0,VALID,93.3637,VALID,0,VALID,23.0769,VALID,144,VALID,0.321875,
2009-12-15, 00:50:04,VALID,1000.66,VALID,0,VALID,93.5468,VALID,0,VALID,23.1141,VALID,154,VALID,0.946484,
2009-12-15, 00:51:04,VALID,1000.64,VALID,0,VALID,93.6154,VALID,0,VALID,23.1939,VALID,155,VALID,0.580078,
2009-12-15, 00:52:04,VALID,1000.63,VALID,0,VALID,93.5544,VALID,0,VALID,23.1921,VALID,155,VALID,0.583203,
2009-12-15, 00:53:04,VALID,1000.65,VALID,0,VALID,93.562,VALID,0,VALID,23.2117,VALID,155,VALID,0.634766,
2009-12-15, 00:54:04,VALID,1000.62,VALID,0,VALID,93.5773,VALID,0,VALID,23.2329,VALID,155,VALID,0.712891,
2009-12-15, 00:55:04,VALID,1000.59,VALID,0,VALID,93.5315,VALID,0,VALID,23.2117,VALID,162,VALID,0.880469,
2009-12-15, 00:56:04,VALID,1000.6,VALID,0,VALID,93.5239,VALID,0,VALID,23.2524,VALID,166,VALID,0.837891,
2009-12-15, 00:57:04,VALID,1000.61,VALID,0,VALID,93.501,VALID,0,VALID,23.2542,VALID,166,VALID,0.719141,
2009-12-15, 00:58:04,VALID,1000.63,VALID,0,VALID,93.4247,VALID,0,VALID,23.2737,VALID,170,VALID,0.404297,
2009-12-15, 00:59:04,VALID,1000.62,VALID,0,VALID,93.3331,VALID,0,VALID,23.2542,VALID,170,VALID,0.126563,
2009-12-15, 01:00:04,VALID,1000.63,VALID,0,VALID,93.2568,VALID,0,VALID,23.2134,VALID,153,VALID,0.600391,
2009-12-15, 01:01:04,VALID,1000.62,VALID,0,VALID,93.1119,VALID,0,VALID,23.1957,VALID,153,VALID,0.316797,
2009-12-15, 01:02:04,VALID,1000.64,VALID,0,VALID,92.944,VALID,0,VALID,23.1354,VALID,153,VALID,0,
2009-12-15, 01:03:04,VALID,1000.61,VALID,0,VALID,92.7762,VALID,0,VALID,23.0769,VALID,153,VALID,0,
2009-12-15, 01:04:04,VALID,1000.61,VALID,0,VALID,92.7151,VALID,0,VALID,23.0786,VALID,153,VALID,0,
2009-12-15, 01:05:04,VALID,1000.63,VALID,0,VALID,92.6083,VALID,0,VALID,23.0183,VALID,153,VALID,0,
2009-12-15, 01:06:04,VALID,1000.6,VALID,0,VALID,92.532,VALID,0,VALID,22.9793,VALID,153,VALID,0,
2009-12-15, 01:07:04,VALID,1000.58,VALID,0,VALID,92.6007,VALID,0,VALID,22.9598,VALID,153,VALID,0,
2009-12-15, 01:08:04,VALID,1000.58,VALID,0,VALID,92.677,VALID,0,VALID,22.9793,VALID,153,VALID,0,
2009-12-15, 01:09:04,VALID,1000.55,VALID,0,VALID,92.6923,VALID,0,VALID,22.9811,VALID,153,VALID,0,
2009-12-15, 01:10:04,VALID,1000.51,VALID,0,VALID,92.6846,VALID,0,VALID,22.9598,VALID,153,VALID,0,
2009-12-15, 01:11:04,VALID,1000.49,VALID,0,VALID,92.8906,VALID,0,VALID,22.9988,VALID,153,VALID,0,
2009-12-15, 01:12:04,VALID,1000.49,VALID,0,VALID,93.0814,VALID,0,VALID,23.0946,VALID,153,VALID,0,
2009-12-15, 01:13:04,VALID,1000.49,VALID,0,VALID,93.1119,VALID,0,VALID,23.1354,VALID,191,VALID,0,
2009-12-15, 01:14:04,VALID,1000.46,VALID,0,VALID,93.089,VALID,0,VALID,23.1141,VALID,191,VALID,0,
2009-12-15, 01:15:04,VALID,1000.47,VALID,0,VALID,92.9822,VALID,0,VALID,23.0964,VALID,164,VALID,0,
2009-12-15, 01:16:04,VALID,1000.45,VALID,0,VALID,93.0432,VALID,0,VALID,23.0751,VALID,107,VALID,0,
2009-12-15, 01:17:04,VALID,1000.45,VALID,0,VALID,93.0585,VALID,0,VALID,23.0751,VALID,129,VALID,0.198047,
2009-12-15, 01:18:04,VALID,1000.42,VALID,0,VALID,93.0737,VALID,0,VALID,23.0946,VALID,135,VALID,0.867188,
2009-12-15, 01:19:04,VALID,1000.41,VALID,0,VALID,93.089,VALID,0,VALID,23.1549,VALID,152,VALID,0.823047,
2009-12-15, 01:20:04,VALID,1000.36,VALID,0,VALID,92.9898,VALID,0.112286,VALID,23.1336,VALID,154,VALID,0.760938,
2009-12-15, 01:21:04,VALID,1000.35,VALID,0,VALID,92.9135,VALID,0,VALID,23.1336,VALID,161,VALID,0.730469,
2009-12-15, 01:22:04,VALID,1000.29,VALID,0,VALID,92.8067,VALID,0,VALID,23.1744,VALID,163,VALID,0.757031,
2009-12-15, 01:23:04,VALID,1000.27,VALID,0,VALID,92.6846,VALID,0.112286,VALID,23.1336,VALID,163,VALID,0.877734,
2009-12-15, 01:24:04,VALID,1000.27,VALID,0,VALID,92.6007,VALID,0,VALID,23.1531,VALID,162,VALID,1.03555,
2009-12-15, 01:25:04,VALID,1000.29,VALID,0,VALID,92.5091,VALID,0.112286,VALID,23.1531,VALID,160,VALID,0.965625,
2009-12-15, 01:26:04,VALID,1000.25,VALID,0,VALID,92.4863,VALID,0,VALID,23.1531,VALID,143,VALID,1.18555,
2009-12-15, 01:27:04,VALID,1000.25,VALID,0,VALID,92.2192,VALID,0,VALID,23.1354,VALID,134,VALID,1.0918,
2009-12-15, 01:28:04,VALID,1000.27,VALID,0,VALID,92.1811,VALID,0,VALID,23.1159,VALID,150,VALID,0.977344,
2009-12-15, 01:29:04,VALID,1000.22,VALID,0,VALID,92.1963,VALID,0,VALID,23.0964,VALID,163,VALID,0.75,
2009-12-15, 01:30:04,VALID,1000.21,VALID,0,VALID,92.3718,VALID,0,VALID,23.0964,VALID,166,VALID,0.526172,
2009-12-15, 01:31:04,VALID,1000.2,VALID,0,VALID,92.4939,VALID,0,VALID,23.1159,VALID,166,VALID,0.490234,
2009-12-15, 01:32:04,VALID,1000.17,VALID,0,VALID,92.4863,VALID,0,VALID,23.1176,VALID,166,VALID,0.436328,
2009-12-15, 01:33:04,VALID,1000.21,VALID,0,VALID,92.5168,VALID,0,VALID,23.0964,VALID,166,VALID,0.366016,
2009-12-15, 01:34:04,VALID,1000.2,VALID,0,VALID,92.4176,VALID,0,VALID,23.0769,VALID,166,VALID,0.200781,
2009-12-15, 01:35:04,VALID,1000.19,VALID,0,VALID,92.4481,VALID,0,VALID,23.0786,VALID,166,VALID,0.137891,
2009-12-15, 01:36:04,VALID,1000.2,VALID,0,VALID,92.41,VALID,0,VALID,23.0378,VALID,166,VALID,0,
2009-12-15, 01:37:04,VALID,1000.17,VALID,0,VALID,92.4328,VALID,0,VALID,23.0378,VALID,166,VALID,0,
2009-12-15, 01:38:04,VALID,1000.19,VALID,0,VALID,92.4252,VALID,0,VALID,23.0183,VALID,166,VALID,0,
2009-12-15, 01:39:04,VALID,1000.19,VALID,0,VALID,92.4481,VALID,0,VALID,22.9988,VALID,166,VALID,0,
2009-12-15, 01:40:04,VALID,1000.16,VALID,0,VALID,92.4863,VALID,0,VALID,22.9988,VALID,166,VALID,0,
2009-12-15, 01:41:04,VALID,1000.18,VALID,0,VALID,92.4939,VALID,0,VALID,23.0201,VALID,166,VALID,0.715234,
2009-12-15, 01:42:04,VALID,1000.18,VALID,0,VALID,92.6694,VALID,0,VALID,23.0573,VALID,171,VALID,0.789844,
2009-12-15, 01:43:04,VALID,1000.18,VALID,0,VALID,92.6312,VALID,0,VALID,23.0573,VALID,166,VALID,0.896875,
2009-12-15, 01:44:04,VALID,1000.17,VALID,0,VALID,92.5626,VALID,0,VALID,23.0573,VALID,153,VALID,1.06953,
2009-12-15, 01:45:04,VALID,1000.16,VALID,0,VALID,92.6007,VALID,0,VALID,23.0981,VALID,152,VALID,0.997656,
2009-12-15, 01:46:04,VALID,1000.16,VALID,0,VALID,92.41,VALID,0,VALID,23.0786,VALID,156,VALID,0.727344,
2009-12-15, 01:47:04,VALID,1000.17,VALID,0,VALID,92.3566,VALID,0,VALID,23.0378,VALID,166,VALID,0.844141,
2009-12-15, 01:48:04,VALID,1000.18,VALID,0,VALID,92.2955,VALID,0,VALID,23.0591,VALID,165,VALID,0.683594,
2009-12-15, 01:49:04,VALID,1000.19,VALID,0,VALID,92.2421,VALID,0,VALID,23.0183,VALID,163,VALID,0.402734,
2009-12-15, 01:50:04,VALID,1000.17,VALID,0,VALID,92.204,VALID,0,VALID,23.0183,VALID,163,VALID,0.286719,
2009-12-15, 01:51:04,VALID,1000.18,VALID,0,VALID,92.2345,VALID,0,VALID,22.9988,VALID,163,VALID,0,
2009-12-15, 01:52:04,VALID,1000.22,VALID,0,VALID,92.3337,VALID,0,VALID,22.9988,VALID,140,VALID,0,
2009-12-15, 01:53:04,VALID,1000.24,VALID,0,VALID,92.4481,VALID,0,VALID,23.0183,VALID,129,VALID,0.577734,
2009-12-15, 01:54:04,VALID,1000.22,VALID,0,VALID,92.5473,VALID,0,VALID,23.0786,VALID,129,VALID,0.488281,
2009-12-15, 01:55:04,VALID,1000.17,VALID,0,VALID,92.4786,VALID,0,VALID,23.0769,VALID,137,VALID,0,
2009-12-15, 01:56:04,VALID,1000.14,VALID,0,VALID,92.4176,VALID,0,VALID,23.0769,VALID,137,VALID,0,
2009-12-15, 01:57:04,VALID,1000.14,VALID,0,VALID,92.4023,VALID,0,VALID,23.0769,VALID,137,VALID,0,
2009-12-15, 01:58:04,VALID,1000.12,VALID,0,VALID,92.265,VALID,0,VALID,23.0769,VALID,137,VALID,0,
2009-12-15, 01:59:04,VALID,1000.11,VALID,0,VALID,92.059,VALID,0,VALID,23.0573,VALID,137,VALID,0,
2009-12-15, 02:00:04,VALID,1000.09,VALID,0,VALID,91.8683,VALID,0,VALID,23.0201,VALID,137,VALID,0,
2009-12-15, 02:01:04,VALID,1000.09,VALID,0,VALID,92.3337,VALID,0,VALID,23.0183,VALID,137,VALID,0,
2009-12-15, 02:02:04,VALID,1000.1,VALID,0,VALID,92.2345,VALID,0,VALID,22.9988,VALID,137,VALID,0,
2009-12-15, 02:03:04,VALID,1000.11,VALID,0,VALID,91.9827,VALID,0,VALID,22.9615,VALID,137,VALID,0,
2009-12-15, 02:04:04,VALID,1000.1,VALID,0,VALID,91.8454,VALID,0,VALID,22.903,VALID,173,VALID,0,
2009-12-15, 02:05:04,VALID,1000.09,VALID,0,VALID,92.0819,VALID,0,VALID,22.8623,VALID,192,VALID,0,
2009-12-15, 02:06:04,VALID,1000.09,VALID,0,VALID,92.0743,VALID,0,VALID,22.864,VALID,192,VALID,0,
2009-12-15, 02:07:04,VALID,1000.08,VALID,0,VALID,92.0743,VALID,0,VALID,22.8427,VALID,132,VALID,0,
2009-12-15, 02:08:04,VALID,1000.09,VALID,0,VALID,91.8835,VALID,0,VALID,22.7452,VALID,114,VALID,1.26328,
2009-12-15, 02:09:04,VALID,1000.07,VALID,0,VALID,92.2726,VALID,0,VALID,22.7647,VALID,114,VALID,0.854297,
2009-12-15, 02:10:04,VALID,1000.12,VALID,0,VALID,92.3566,VALID,0,VALID,22.786,VALID,114,VALID,0.613672,
2009-12-15, 02:11:04,VALID,1000.12,VALID,0,VALID,92.4252,VALID,0,VALID,22.7664,VALID,114,VALID,0.299609,
2009-12-15, 02:12:04,VALID,1000.11,VALID,0,VALID,92.4863,VALID,0,VALID,22.7452,VALID,114,VALID,0,
2009-12-15, 02:13:04,VALID,1000.14,VALID,0,VALID,92.2879,VALID,0,VALID,22.7079,VALID,114,VALID,0,
2009-12-15, 02:14:04,VALID,1000.17,VALID,0,VALID,92.2955,VALID,0,VALID,22.6689,VALID,114,VALID,0,
2009-12-15, 02:15:04,VALID,1000.16,VALID,0,VALID,92.1429,VALID,0,VALID,22.5909,VALID,112,VALID,0,
2009-12-15, 02:16:04,VALID,1000.14,VALID,0,VALID,92.4634,VALID,0,VALID,22.5909,VALID,109,VALID,0,
2009-12-15, 02:17:04,VALID,1000.12,VALID,0,VALID,92.6846,VALID,0,VALID,22.6104,VALID,109,VALID,0,
2009-12-15, 02:18:04,VALID,1000.11,VALID,0,VALID,92.6999,VALID,0,VALID,22.6087,VALID,109,VALID,0,
2009-12-15, 02:19:04,VALID,1000.11,VALID,0,VALID,92.6617,VALID,0,VALID,22.6104,VALID,109,VALID,0,
2009-12-15, 02:20:04,VALID,1000.06,VALID,0,VALID,92.6694,VALID,0,VALID,22.5909,VALID,109,VALID,0,
2009-12-15, 02:21:04,VALID,1000.05,VALID,0,VALID,92.6541,VALID,0,VALID,22.5909,VALID,109,VALID,0,
2009-12-15, 02:22:04,VALID,1000.04,VALID,0,VALID,92.6083,VALID,0,VALID,22.5306,VALID,109,VALID,0,
2009-12-15, 02:23:04,VALID,1000.07,VALID,0,VALID,92.5626,VALID,0,VALID,22.4916,VALID,109,VALID,0,
2009-12-15, 02:24:04,VALID,1000.07,VALID,0,VALID,92.6236,VALID,0,VALID,22.4933,VALID,109,VALID,0,
2009-12-15, 02:25:04,VALID,1000.08,VALID,0,VALID,92.7685,VALID,0,VALID,22.5323,VALID,109,VALID,0,
2009-12-15, 02:26:04,VALID,1000.05,VALID,0,VALID,92.944,VALID,0,VALID,22.5909,VALID,109,VALID,0,
2009-12-15, 02:27:04,VALID,1000.07,VALID,0,VALID,93.1043,VALID,0,VALID,22.6299,VALID,109,VALID,0,
2009-12-15, 02:28:04,VALID,1000.06,VALID,0,VALID,93.234,VALID,0,VALID,22.6494,VALID,109,VALID,0.335938,
2009-12-15, 02:29:04,VALID,1000.06,VALID,0,VALID,93.2721,VALID,0,VALID,22.6884,VALID,117,VALID,0.564453,
2009-12-15, 02:30:04,VALID,1000.05,VALID,0,VALID,93.3179,VALID,0,VALID,22.7469,VALID,128,VALID,0.383984,
2009-12-15, 02:31:04,VALID,1000.04,VALID,0,VALID,93.3103,VALID,0,VALID,22.786,VALID,128,VALID,0.399609,
2009-12-15, 02:32:04,VALID,1000.04,VALID,0,VALID,93.234,VALID,0,VALID,22.7647,VALID,128,VALID,0.374219,
2009-12-15, 02:33:04,VALID,1000.02,VALID,0,VALID,93.1424,VALID,0,VALID,22.8055,VALID,128,VALID,0.3125,
2009-12-15, 02:34:04,VALID,1000.01,VALID,0,VALID,93.0508,VALID,0,VALID,22.7842,VALID,128,VALID,0,
2009-12-15, 02:35:04,VALID,999.993,VALID,0,VALID,92.944,VALID,0,VALID,22.8232,VALID,128,VALID,0,
2009-12-15, 02:36:04,VALID,999.995,VALID,0,VALID,92.7075,VALID,0,VALID,22.7842,VALID,128,VALID,0,
2009-12-15, 02:37:04,VALID,999.944,VALID,0,VALID,92.5854,VALID,0,VALID,22.7257,VALID,128,VALID,0,
2009-12-15, 02:38:04,VALID,999.933,VALID,0,VALID,92.6923,VALID,0,VALID,22.7664,VALID,128,VALID,0,
2009-12-15, 02:39:04,VALID,999.958,VALID,0,VALID,92.41,VALID,0,VALID,22.7079,VALID,128,VALID,0,
2009-12-15, 02:40:04,VALID,999.931,VALID,0,VALID,92.2497,VALID,0,VALID,22.6494,VALID,128,VALID,0,
2009-12-15, 02:41:04,VALID,999.946,VALID,0,VALID,91.9674,VALID,0,VALID,22.5323,VALID,128,VALID,0,
2009-12-15, 02:42:04,VALID,999.961,VALID,0,VALID,92.7151,VALID,0,VALID,22.5679,VALID,128,VALID,0,
2009-12-15, 02:43:04,VALID,999.951,VALID,0,VALID,92.8372,VALID,0,VALID,22.6282,VALID,128,VALID,0,
2009-12-15, 02:44:04,VALID,999.97,VALID,0,VALID,92.5549,VALID,0,VALID,22.6069,VALID,128,VALID,0,
2009-12-15, 02:45:04,VALID,999.974,VALID,0,VALID,92.3871,VALID,0,VALID,22.5501,VALID,116,VALID,0,
2009-12-15, 02:46:04,VALID,999.984,VALID,0,VALID,92.5244,VALID,0,VALID,22.5289,VALID,94,VALID,0,
2009-12-15, 02:47:04,VALID,1000,VALID,0,VALID,92.6694,VALID,0.112286,VALID,22.5501,VALID,94,VALID,0,
2009-12-15, 02:48:04,VALID,1000.03,VALID,0,VALID,92.7457,VALID,0,VALID,22.5501,VALID,94,VALID,0,
2009-12-15, 02:49:04,VALID,1000.05,VALID,0,VALID,92.471,VALID,0,VALID,22.4704,VALID,94,VALID,0,
2009-12-15, 02:50:04,VALID,1000.03,VALID,0,VALID,92.7685,VALID,0,VALID,22.4916,VALID,94,VALID,0,
2009-12-15, 02:51:04,VALID,1000.02,VALID,0,VALID,93.0356,VALID,0,VALID,22.5289,VALID,94,VALID,0.689844,
2009-12-15, 02:52:04,VALID,1000.02,VALID,0,VALID,93.1119,VALID,0,VALID,22.5501,VALID,88,VALID,0.740234,
2009-12-15, 02:53:04,VALID,1000.02,VALID,0,VALID,93.1271,VALID,0,VALID,22.6087,VALID,88,VALID,0.610547,
2009-12-15, 02:54:04,VALID,1000.01,VALID,0,VALID,93.1043,VALID,0,VALID,22.5874,VALID,86,VALID,0.760938,
2009-12-15, 02:55:04,VALID,999.962,VALID,0,VALID,92.8067,VALID,0,VALID,22.5484,VALID,68,VALID,0.804688,
2009-12-15, 02:56:04,VALID,999.959,VALID,0,VALID,92.6617,VALID,0.112286,VALID,22.5501,VALID,68,VALID,0.449219,
2009-12-15, 02:57:04,VALID,999.956,VALID,0,VALID,92.5091,VALID,0,VALID,22.4916,VALID,68,VALID,0,
2009-12-15, 02:58:04,VALID,999.965,VALID,0,VALID,92.41,VALID,0,VALID,22.4331,VALID,68,VALID,0,
2009-12-15, 02:59:04,VALID,999.972,VALID,0,VALID,92.4328,VALID,0,VALID,22.4136,VALID,68,VALID,0,
2009-12-15, 03:00:04,VALID,999.964,VALID,0,VALID,92.4557,VALID,0,VALID,22.3534,VALID,65,VALID,0,
2009-12-15, 03:01:04,VALID,999.983,VALID,0,VALID,92.4634,VALID,0,VALID,22.3551,VALID,43,VALID,0,
2009-12-15, 03:02:04,VALID,1000,VALID,0,VALID,92.41,VALID,0,VALID,22.3161,VALID,30,VALID,0,
2009-12-15, 03:03:04,VALID,1000.03,VALID,0,VALID,92.4863,VALID,0,VALID,22.2754,VALID,30,VALID,0,
2009-12-15, 03:04:04,VALID,1000.04,VALID,0,VALID,92.5854,VALID,0,VALID,22.2966,VALID,30,VALID,0,
2009-12-15, 03:05:04,VALID,1000.02,VALID,0,VALID,92.6007,VALID,0,VALID,22.2754,VALID,30,VALID,0,
2009-12-15, 03:06:04,VALID,1000.02,VALID,0,VALID,92.5931,VALID,0,VALID,22.2966,VALID,30,VALID,0,
2009-12-15, 03:07:04,VALID,1000.03,VALID,0,VALID,92.6083,VALID,0,VALID,22.2771,VALID,30,VALID,0,
2009-12-15, 03:08:04,VALID,1000.03,VALID,0,VALID,92.5549,VALID,0,VALID,22.2576,VALID,30,VALID,0,
2009-12-15, 03:09:04,VALID,1000.02,VALID,0,VALID,92.4176,VALID,0,VALID,22.2186,VALID,30,VALID,0,
2009-12-15, 03:10:04,VALID,1000.07,VALID,0,VALID,92.5473,VALID,0,VALID,22.1779,VALID,20,VALID,0,
2009-12-15, 03:11:04,VALID,1000.05,VALID,0,VALID,92.6999,VALID,0,VALID,22.199,VALID,4,VALID,0.696484,
2009-12-15, 03:12:04,VALID,1000.03,VALID,0,VALID,92.7914,VALID,0,VALID,22.2186,VALID,345,VALID,0.551562,
2009-12-15, 03:13:04,VALID,1000.05,VALID,0,VALID,92.8372,VALID,0,VALID,22.2397,VALID,342,VALID,0.472656,
2009-12-15, 03:14:04,VALID,1000.05,VALID,0,VALID,92.9364,VALID,0,VALID,22.2788,VALID,325,VALID,0.373047,
2009-12-15, 03:15:04,VALID,1000.04,VALID,0,VALID,92.9669,VALID,0,VALID,22.2771,VALID,325,VALID,0.158984,
2009-12-15, 03:16:04,VALID,1000.05,VALID,0,VALID,92.9211,VALID,0,VALID,22.2576,VALID,325,VALID,0,
2009-12-15, 03:17:04,VALID,1000.04,VALID,0,VALID,92.9135,VALID,0,VALID,22.2576,VALID,325,VALID,0,
2009-12-15, 03:18:04,VALID,1000.01,VALID,0,VALID,92.8983,VALID,0,VALID,22.2788,VALID,325,VALID,0,
2009-12-15, 03:19:04,VALID,1000.04,VALID,0,VALID,92.9288,VALID,0,VALID,22.2788,VALID,325,VALID,0,
2009-12-15, 03:20:04,VALID,999.99,VALID,0,VALID,93.0508,VALID,0,VALID,22.3178,VALID,325,VALID,0,
2009-12-15, 03:21:04,VALID,999.987,VALID,0,VALID,93.15,VALID,0,VALID,22.3568,VALID,325,VALID,0,
2009-12-15, 03:22:04,VALID,999.987,VALID,0,VALID,93.15,VALID,0,VALID,22.3958,VALID,325,VALID,0,
2009-12-15, 03:23:04,VALID,999.983,VALID,0,VALID,93.0966,VALID,0,VALID,22.3941,VALID,325,VALID,0,
2009-12-15, 03:24:04,VALID,999.981,VALID,0,VALID,93.0508,VALID,0,VALID,22.4348,VALID,325,VALID,0,
2009-12-15, 03:25:04,VALID,999.999,VALID,0,VALID,92.9822,VALID,0,VALID,22.4331,VALID,325,VALID,0,
2009-12-15, 03:26:04,VALID,999.981,VALID,0,VALID,92.6999,VALID,0,VALID,22.3941,VALID,325,VALID,0,
2009-12-15, 03:27:04,VALID,999.977,VALID,0,VALID,92.6999,VALID,0.112286,VALID,22.3941,VALID,325,VALID,0,
2009-12-15, 03:28:04,VALID,999.975,VALID,0,VALID,92.5091,VALID,0.112286,VALID,22.3144,VALID,325,VALID,0,
2009-12-15, 03:29:04,VALID,999.972,VALID,0,VALID,92.5778,VALID,0,VALID,22.3144,VALID,325,VALID,0,
2009-12-15, 03:30:04,VALID,999.967,VALID,0,VALID,92.6694,VALID,0,VALID,22.3356,VALID,325,VALID,0,
2009-12-15, 03:31:04,VALID,999.96,VALID,0,VALID,92.1429,VALID,0,VALID,22.2771,VALID,325,VALID,0,
2009-12-15, 03:32:04,VALID,999.974,VALID,0,VALID,92.326,VALID,0,VALID,22.199,VALID,325,VALID,0.0519531,
2009-12-15, 03:33:04,VALID,999.972,VALID,0,VALID,92.8754,VALID,0,VALID,22.2771,VALID,322,VALID,0.715625,
2009-12-15, 03:34:04,VALID,999.948,VALID,0,VALID,92.9669,VALID,0,VALID,22.3746,VALID,42,VALID,0.886328,
2009-12-15, 03:35:04,VALID,999.989,VALID,0,VALID,92.7609,VALID,0,VALID,22.4136,VALID,134,VALID,0.788672,
2009-12-15, 03:36:04,VALID,1000.01,VALID,0,VALID,92.5091,VALID,0,VALID,22.4509,VALID,133,VALID,0.720703,
2009-12-15, 03:37:04,VALID,999.997,VALID,0,VALID,92.2497,VALID,0,VALID,22.4916,VALID,133,VALID,0.63125,
2009-12-15, 03:38:04,VALID,999.997,VALID,0,VALID,91.998,VALID,0,VALID,22.5306,VALID,133,VALID,0.650781,
2009-12-15, 03:39:04,VALID,1000.03,VALID,0,VALID,91.6394,VALID,0,VALID,22.5111,VALID,133,VALID,0.594531,
2009-12-15, 03:40:04,VALID,1000.02,VALID,0,VALID,91.3342,VALID,0,VALID,22.4916,VALID,124,VALID,0.659766,
2009-12-15, 03:41:04,VALID,1000.04,VALID,0,VALID,91.3418,VALID,0,VALID,22.4526,VALID,121,VALID,0.491797,
2009-12-15, 03:42:04,VALID,1000.06,VALID,0,VALID,91.4791,VALID,0,VALID,22.4348,VALID,121,VALID,0.457422,
2009-12-15, 03:43:04,VALID,1000.05,VALID,0,VALID,91.4791,VALID,0,VALID,22.4153,VALID,125,VALID,0.464063,
2009-12-15, 03:44:04,VALID,1000.06,VALID,0,VALID,91.4944,VALID,0,VALID,22.3763,VALID,125,VALID,0.147656,
2009-12-15, 03:45:04,VALID,1000.08,VALID,0,VALID,91.5402,VALID,0,VALID,22.3373,VALID,125,VALID,0,
2009-12-15, 03:46:04,VALID,1000.05,VALID,0,VALID,91.5173,VALID,0,VALID,22.3178,VALID,125,VALID,0,
2009-12-15, 03:47:04,VALID,1000.07,VALID,0,VALID,91.6241,VALID,0,VALID,22.2788,VALID,125,VALID,0,
2009-12-15, 03:48:04,VALID,1000.08,VALID,0,VALID,91.8454,VALID,0,VALID,22.2576,VALID,125,VALID,0,
2009-12-15, 03:49:04,VALID,1000.09,VALID,0,VALID,92.0285,VALID,0,VALID,22.2788,VALID,125,VALID,0,
2009-12-15, 03:50:04,VALID,1000.1,VALID,0,VALID,92.0437,VALID,0,VALID,22.2788,VALID,125,VALID,0,
2009-12-15, 03:51:04,VALID,1000.14,VALID,0,VALID,92.12,VALID,0,VALID,22.2592,VALID,125,VALID,0,
2009-12-15, 03:52:04,VALID,1000.16,VALID,0,VALID,91.9827,VALID,0,VALID,22.2397,VALID,52,VALID,0.673047,